| time (UTC) | temp F | wind direction | speed knots | gust knots | rain 1hr in | rain 24hr in | rain mn in | humidity % | barometer mb |
| 20260902120507 | 73 | 323 | 13.9 | 17.4 | 0.00 | 0.00 | 0.00 | 47 | 1035.2 |
| 20260902115134 | 73 | 16 | 13.9 | 21.7 | 0.00 | 0.00 | 0.00 | 49 | 1035.5 |
| 20260902113913 | 73 | 71 | 1.7 | 3.5 | 0.00 | 0.00 | 0.00 | 51 | 1035.4 |
| 20260902112619 | 73 | 33 | 7.8 | 9.6 | 0.00 | 0.00 | 0.00 | 48 | 1035.4 |
| 20260902111402 | 73 | 33 | 1.7 | 3.5 | 0.00 | 0.00 | 0.00 | 50 | 1035.5 |
| 20260902110107 | 73 | 8 | 9.6 | 13.9 | 0.00 | 0.00 | 0.00 | 52 | 1035.9 |
| 20260902104830 | 73 | 304 | 3.5 | 9.6 | 0.00 | 0.00 | 0.00 | 49 | 1035.7 |
| 20260902103630 | 73 | 1 | 9.6 | 13.9 | 0.00 | 0.00 | 0.00 | 54 | 1035.7 |
| 20260902102158 | 70 | 22 | 6.1 | 9.6 | 0.00 | 0.00 | 0.00 | 59 | 1036.0 |
| 20260902100909 | 70 | 22 | 6.1 | 7.8 | 0.00 | 0.00 | 0.00 | 61 | 1035.9 |
| 20260902095454 | 70 | 23 | 7.8 | 9.6 | 0.00 | 0.00 | 0.00 | 62 | 1035.9 |
| 20260902094020 | 72 | 24 | 3.5 | 7.8 | 0.00 | 0.00 | 0.00 | 60 | 1035.9 |
| 20260902092516 | 70 | 30 | 1.7 | 3.5 | 0.00 | 0.00 | 0.00 | 63 | 1036.1 |
| 20260902091243 | 70 | 34 | 11.3 | 17.4 | 0.00 | 0.00 | 0.00 | 60 | 1036.1 |
| 20260902085941 | 72 | 36 | 3.5 | 7.8 | 0.00 | 0.00 | 0.00 | 59 | 1035.9 |
| 20260902084445 | 70 | 6 | 3.5 | 3.5 | 0.00 | 0.00 | 0.00 | 62 | 1035.9 |
| 20260902083120 | 68 | 5 | 9.6 | 13.9 | 0.00 | 0.00 | 0.00 | 66 | 1036.1 |
| 20260902081739 | 68 | 7 | 1.7 | 3.5 | 0.00 | 0.00 | 0.00 | 64 | 1036.1 |
| 20260902080539 | 70 | 11 | 6.1 | 7.8 | 0.00 | 0.00 | 0.00 | 64 | 1036.2 |
| 20260902075109 | 66 | 25 | 6.1 | 7.8 | 0.00 | 0.00 | 0.00 | 66 | 1036.1 |
| 20260902073814 | 68 | 24 | 6.1 | 7.8 | 0.00 | 0.00 | 0.00 | 65 | 1036.0 |
| 20260902072525 | 66 | 28 | 0.0 | 0.0 | 0.00 | 0.00 | 0.00 | 68 | 1036.1 |
| 20260902071234 | 66 | 13 | 0.0 | 0.0 | 0.00 | 0.00 | 0.00 | 67 | 1036.2 |
| 20260902065728 | 66 | 27 | 3.5 | 3.5 | 0.00 | 0.00 | 0.00 | 71 | 1035.8 |
| 20260902064452 | 64 | 24 | 3.5 | 3.5 | 0.00 | 0.00 | 0.00 | 72 | 1035.9 |
| 20260902063148 | 64 | 30 | 0.0 | 0.0 | 0.00 | 0.00 | 0.00 | 72 | 1035.7 |
| 20260902061829 | 63 | 40 | 1.7 | 3.5 | 0.00 | 0.00 | 0.00 | 78 | 1035.4 |
| 20260902060423 | 61 | 30 | 3.5 | 7.8 | 0.00 | 0.00 | 0.00 | 83 | 1035.6 |
| 20260902055129 | 57 | 32 | 0.0 | 0.0 | 0.00 | 0.00 | 0.00 | 90 | 1035.6 |
| 20260902053817 | 55 | 34 | 0.0 | 0.0 | 0.00 | 0.00 | 0.00 | 95 | 1035.6 |
| 20260902052350 | 54 | 32 | 0.0 | 0.0 | 0.00 | 0.00 | 0.00 | 97 | 1035.5 |
| 20260902051120 | 52 | 32 | 0.0 | 0.0 | 0.00 | 0.00 | 0.00 | 98 | 1035.8 |
| 20260902045813 | 52 | 33 | 0.0 | 0.0 | 0.00 | 0.00 | 0.00 | 98 | 1035.6 |
| 20260902044348 | 50 | 32 | 0.0 | 0.0 | 0.00 | 0.00 | 0.00 | 98 | 1035.6 |
| 20260902043133 | 50 | 35 | 0.0 | 0.0 | 0.00 | 0.00 | 0.00 | 98 | 1035.4 |
| 20260902041633 | 48 | 31 | 0.0 | 0.0 | 0.00 | 0.00 | 0.00 | 98 | 1035.6 |
| 20260902040413 | 48 | 31 | 0.0 | 0.0 | 0.00 | 0.00 | 0.00 | 98 | 1035.5 |
| 20260902035143 | 50 | 33 | 0.0 | 0.0 | 0.00 | 0.00 | 0.00 | 98 | 1035.2 |
| 20260902033758 | 50 | 31 | 0.0 | 0.0 | 0.00 | 0.00 | 0.00 | 97 | 1035.5 |
| 20260902032508 | 50 | 31 | 0.0 | 0.0 | 0.00 | 0.00 | 0.00 | 97 | 1035.4 |
| 20260902031043 | 50 | 32 | 0.0 | 0.0 | 0.00 | 0.00 | 0.00 | 97 | 1035.6 |
| 20260902025843 | 50 | 31 | 0.0 | 0.0 | 0.00 | 0.00 | 0.00 | 97 | 1035.4 |
| 20260902024604 | 50 | 31 | 0.0 | 0.0 | 0.00 | 0.00 | 0.00 | 96 | 1035.6 |
| 20260902023317 | 50 | 31 | 0.0 | 0.0 | 0.00 | 0.00 | 0.00 | 97 | 1035.5 |
| 20260902022044 | 50 | 33 | 0.0 | 0.0 | 0.00 | 0.00 | 0.00 | 97 | 1035.6 |
| 20260902020558 | 50 | 35 | 0.0 | 0.0 | 0.00 | 0.00 | 0.00 | 98 | 1035.6 |
| 20260902015330 | 48 | 36 | 0.0 | 0.0 | 0.00 | 0.00 | 0.00 | 98 | 1035.5 |
| 20260902014118 | 48 | 32 | 0.0 | 0.0 | 0.00 | 0.00 | 0.00 | 97 | 1035.5 |
| 20260902012844 | 48 | 32 | 0.0 | 0.0 | 0.00 | 0.00 | 0.00 | 97 | 1035.7 |
| 20260902011603 | 48 | 31 | 0.0 | 0.0 | 0.00 | 0.00 | 0.00 | 97 | 1035.5 |
| 20260902010304 | 48 | 32 | 0.0 | 0.0 | 0.00 | 0.00 | 0.00 | 97 | 1035.5 |
| 20260902004913 | 48 | 36 | 0.0 | 0.0 | 0.00 | 0.00 | 0.00 | 96 | 1035.4 |
| 20260902003709 | 50 | 34 | 0.0 | 0.0 | 0.00 | 0.00 | 0.00 | 96 | 1035.6 |
| 20260902002353 | 50 | 34 | 0.0 | 0.0 | 0.00 | 0.00 | 0.00 | 96 | 1035.5 |
| 20260902001038 | 50 | 32 | 0.0 | 0.0 | 0.00 | 0.00 | 0.00 | 96 | 1035.7 |
| 20260901235644 | 50 | 22 | 6.1 | 7.8 | 0.00 | 0.00 | 0.00 | 96 | 1035.6 |
| 20260901234408 | 50 | 32 | 0.0 | 0.0 | 0.00 | 0.00 | 0.00 | 96 | 1035.5 |
| 20260901233123 | 50 | 34 | 0.0 | 0.0 | 0.00 | 0.00 | 0.00 | 96 | 1035.4 |
| 20260901231638 | 50 | 34 | 0.0 | 0.0 | 0.00 | 0.00 | 0.00 | 95 | 1035.3 |
| 20260901230437 | 50 | 34 | 0.0 | 0.0 | 0.00 | 0.00 | 0.00 | 95 | 1035.5 |
| 20260901225003 | 50 | 33 | 0.0 | 0.0 | 0.00 | 0.00 | 0.00 | 95 | 1035.1 |
| 20260901223613 | 52 | 37 | 0.0 | 0.0 | 0.00 | 0.00 | 0.00 | 95 | 1035.2 |
| 20260901222218 | 52 | 32 | 0.0 | 0.0 | 0.00 | 0.00 | 0.00 | 95 | 1035.2 |
| 20260901220948 | 52 | 32 | 0.0 | 0.0 | 0.00 | 0.00 | 0.00 | 94 | 1035.2 |
| 20260901215634 | 52 | 30 | 0.0 | 0.0 | 0.00 | 0.00 | 0.00 | 94 | 1035.2 |
| 20260901214228 | 52 | 31 | 0.0 | 0.0 | 0.00 | 0.00 | 0.00 | 93 | 1035.1 |
| 20260901212804 | 54 | 29 | 0.0 | 0.0 | 0.00 | 0.00 | 0.00 | 92 | 1035.3 |
| 20260901211353 | 54 | 33 | 0.0 | 0.0 | 0.00 | 0.00 | 0.00 | 92 | 1035.0 |
| 20260901210044 | 54 | 36 | 0.0 | 0.0 | 0.00 | 0.00 | 0.00 | 91 | 1035.1 |
| 20260901204758 | 54 | 33 | 0.0 | 0.0 | 0.00 | 0.00 | 0.00 | 92 | 1035.1 |
| 20260901203339 | 54 | 33 | 0.0 | 0.0 | 0.00 | 0.00 | 0.00 | 91 | 1035.1 |
| 20260901201952 | 55 | 34 | 0.0 | 0.0 | 0.00 | 0.00 | 0.00 | 90 | 1034.8 |
| 20260901200544 | 55 | 34 | 0.0 | 0.0 | 0.00 | 0.00 | 0.00 | 90 | 1034.7 |
| 20260901195118 | 55 | 32 | 0.0 | 0.0 | 0.00 | 0.00 | 0.00 | 89 | 1034.8 |
| 20260901193914 | 55 | 34 | 0.0 | 0.0 | 0.00 | 0.00 | 0.00 | 87 | 1034.6 |
| 20260901192504 | 57 | 34 | 0.0 | 0.0 | 0.00 | 0.00 | 0.00 | 86 | 1034.7 |
| 20260901191233 | 59 | 33 | 0.0 | 0.0 | 0.00 | 0.00 | 0.00 | 84 | 1034.7 |
| 20260901185739 | 59 | 33 | 0.0 | 0.0 | 0.00 | 0.00 | 0.00 | 82 | 1034.6 |
| 20260901184518 | 61 | 34 | 0.0 | 0.0 | 0.00 | 0.00 | 0.00 | 80 | 1034.5 |
| 20260901183059 | 63 | 33 | 0.0 | 0.0 | 0.00 | 0.00 | 0.00 | 77 | 1034.6 |
| 20260901181858 | 63 | 34 | 0.0 | 0.0 | 0.00 | 0.00 | 0.00 | 74 | 1034.4 |
| 20260901180649 | 64 | 36 | 0.0 | 0.0 | 0.00 | 0.00 | 0.00 | 70 | 1034.4 |
| 20260901175438 | 64 | 22 | 3.5 | 7.8 | 0.00 | 0.00 | 0.00 | 65 | 1034.3 |
| 20260901174209 | 64 | 32 | 6.1 | 7.8 | 0.00 | 0.00 | 0.00 | 64 | 1034.1 |
| 20260901172843 | 66 | 32 | 1.7 | 3.5 | 0.00 | 0.00 | 0.00 | 64 | 1034.0 |
| 20260901171442 | 66 | 42 | 1.7 | 3.5 | 0.00 | 0.00 | 0.00 | 62 | 1033.8 |
| 20260901165954 | 68 | 29 | 7.8 | 7.8 | 0.00 | 0.00 | 0.00 | 60 | 1033.7 |
| 20260901164658 | 68 | 337 | 9.6 | 17.4 | 0.00 | 0.00 | 0.00 | 58 | 1033.3 |
| 20260901163429 | 70 | 31 | 7.8 | 9.6 | 0.00 | 0.00 | 0.00 | 56 | 1033.7 |
| 20260901162132 | 70 | 354 | 11.3 | 13.9 | 0.00 | 0.00 | 0.00 | 55 | 1033.5 |
| 20260901160713 | 72 | 8 | 9.6 | 13.9 | 0.00 | 0.00 | 0.00 | 55 | 1033.2 |
| 20260901155424 | 72 | 32 | 7.8 | 9.6 | 0.00 | 0.00 | 0.00 | 53 | 1033.1 |
| 20260901154029 | 72 | 359 | 13.9 | 17.4 | 0.00 | 0.00 | 0.00 | 53 | 1033.2 |
| 20260901152643 | 72 | 30 | 15.6 | 21.7 | 0.00 | 0.00 | 0.00 | 51 | 1033.3 |
| 20260901151204 | 72 | 9 | 17.4 | 25.2 | 0.00 | 0.00 | 0.00 | 50 | 1032.9 |
| 20260901145728 | 73 | 30 | 11.3 | 17.4 | 0.00 | 0.00 | 0.00 | 50 | 1032.8 |
| 20260901144354 | 72 | 264 | 21.7 | 33.0 | 0.00 | 0.00 | 0.00 | 52 | 1033.0 |
| 20260901142914 | 72 | 353 | 3.5 | 9.6 | 0.00 | 0.00 | 0.00 | 53 | 1032.9 |
| 20260901141548 | 73 | 51 | 9.6 | 9.6 | 0.00 | 0.00 | 0.00 | 53 | 1032.6 |
| 20260901140224 | 72 | 48 | 9.6 | 13.9 | 0.00 | 0.00 | 0.00 | 53 | 1032.8 |
| 20260901134728 | 73 | 2 | 23.5 | 33.0 | 0.00 | 0.00 | 0.00 | 51 | 1032.6 |
| 20260901133450 | 72 | 29 | 7.8 | 9.6 | 0.00 | 0.00 | 0.00 | 57 | 1032.8 |
| 20260901132123 | 73 | 336 | 7.8 | 9.6 | 0.00 | 0.00 | 0.00 | 57 | 1032.8 |
| 20260901130904 | 75 | 0 | 7.8 | 9.6 | 0.00 | 0.00 | 0.00 | 55 | 1032.5 |
| 20260901125623 | 73 | 349 | 19.1 | 21.7 | 0.00 | 0.00 | 0.00 | 56 | 1032.6 |
| 20260901124359 | 75 | 33 | 7.8 | 9.6 | 0.00 | 0.00 | 0.00 | 55 | 1032.5 |
| 20260901122953 | 73 | 24 | 7.8 | 9.6 | 0.00 | 0.00 | 0.00 | 56 | 1032.5 |
| 20260901121548 | 73 | 24 | 21.7 | 25.2 | 0.00 | 0.00 | 0.00 | 59 | 1032.8 |